• en France
  • Liste des pays
  • À 7 jours
  • Température de l'eau
  • Carte satellitaire
  • Carte météo
  • Widgets météo
  • user-avatar
    Se connecter

    Météo par heure à Manama

    Ce jour, 17 Juillet, Mardi

    Heure Température Précipitation Vent Pression Humidité
    00:00 +40°C° 0 mm 4 m/s 746 mmHg 27%
    01:00 +40°C° 0 mm 4 m/s 746 mmHg 26%
    02:00 +40°C° 0 mm 5 m/s 746 mmHg 25%
    03:00 +40°C° 0 mm 5 m/s 745 mmHg 27%
    04:00 +40°C° 0 mm 5 m/s 746 mmHg 26%
    05:00 +40°C° 0 mm 6 m/s 746 mmHg 25%
    06:00 +40°C° 0 mm 6 m/s 746 mmHg 24%
    07:00 +41°C° 0 mm 6 m/s 747 mmHg 24%
    08:00 +44°C° 0 mm 6 m/s 747 mmHg 23%
    09:00 +45°C° 0 mm 6 m/s 747 mmHg 23%
    10:00 +46°C° 0 mm 7 m/s 747 mmHg 21%
    11:00 +47°C° 0 mm 7 m/s 747 mmHg 19%
    12:00 +49°C° 0 mm 7 m/s 746 mmHg 17%
    13:00 +47°C° 0 mm 7 m/s 746 mmHg 17%
    14:00 +48°C° 0 mm 8 m/s 746 mmHg 18%
    15:00 +48°C° 0 mm 8 m/s 746 mmHg 18%
    16:00 +46°C° 0 mm 7 m/s 746 mmHg 20%
    17:00 +45°C° 0 mm 6 m/s 746 mmHg 22%
    18:00 +44°C° 0 mm 6 m/s 745 mmHg 24%
    19:00 +42°C° 0 mm 5 m/s 746 mmHg 26%
    20:00 +41°C° 0 mm 4 m/s 746 mmHg 28%
    21:00 +39°C° 0 mm 3 m/s 746 mmHg 30%
    22:00 +39°C° 0 mm 3 m/s 746 mmHg 29%
    23:00 +40°C° 0 mm 4 m/s 746 mmHg 28%

    Demain, 18 Juillet, Mercredi

    Heure Température Précipitation Vent Pression Humidité
    00:00 +38°C° 0 mm 4 m/s 746 mmHg 28%
    01:00 +39°C° 0 mm 5 m/s 746 mmHg 29%
    02:00 +39°C° 0 mm 6 m/s 746 mmHg 30%
    03:00 +38°C° 0 mm 6 m/s 746 mmHg 31%
    04:00 +39°C° 0 mm 7 m/s 746 mmHg 29%
    05:00 +39°C° 0 mm 7 m/s 746 mmHg 28%
    06:00 +39°C° 0 mm 7 m/s 746 mmHg 26%
    07:00 +41°C° 0 mm 7 m/s 746 mmHg 23%
    08:00 +43°C° 0 mm 7 m/s 747 mmHg 20%
    09:00 +45°C° 0 mm 7 m/s 747 mmHg 17%
    10:00 +46°C° 0 mm 7 m/s 747 mmHg 16%
    11:00 +47°C° 0 mm 7 m/s 747 mmHg 15%
    12:00 +49°C° 0 mm 7 m/s 747 mmHg 13%
    13:00 +49°C° 0 mm 7 m/s 747 mmHg 14%
    14:00 +47°C° 0 mm 7 m/s 746 mmHg 15%
    15:00 +47°C° 0 mm 7 m/s 746 mmHg 16%
    16:00 +46°C° 0 mm 6 m/s 746 mmHg 19%
    17:00 +43°C° 0 mm 5 m/s 746 mmHg 22%
    18:00 +42°C° 0 mm 5 m/s 746 mmHg 26%
    19:00 +40°C° 0 mm 3 m/s 746 mmHg 29%
    20:00 +39°C° 0 mm 2 m/s 747 mmHg 33%
    21:00 +37°C° 0 mm 1 m/s 747 mmHg 36%
    22:00 +37°C° 0 mm 1 m/s 747 mmHg 35%
    23:00 +38°C° 0 mm 2 m/s 747 mmHg 33%

    Après-demain, 19 Juillet, Jeudi

    Heure Température Précipitation Vent Pression Humidité
    00:00 +38°C° 0 mm 3 m/s 747 mmHg 32%
    01:00 +38°C° 0 mm 3 m/s 747 mmHg 30%
    02:00 +37°C° 0 mm 3 m/s 747 mmHg 29%
    03:00 +37°C° 0 mm 4 m/s 747 mmHg 27%
    04:00 +38°C° 0 mm 4 m/s 747 mmHg 26%
    05:00 +38°C° 0 mm 4 m/s 747 mmHg 24%
    06:00 +38°C° 0 mm 4 m/s 747 mmHg 22%
    07:00 +41°C° 0 mm 4 m/s 747 mmHg 19%
    08:00 +43°C° 0 mm 4 m/s 747 mmHg 16%
    09:00 +46°C° 0 mm 5 m/s 748 mmHg 12%
    10:00 +47°C° 0 mm 4 m/s 747 mmHg 12%
    11:00 +48°C° 0 mm 4 m/s 747 mmHg 11%
    12:00 +49°C° 0 mm 4 m/s 747 mmHg 11%
    13:00 +48°C° 0 mm 4 m/s 747 mmHg 12%
    14:00 +48°C° 0 mm 4 m/s 746 mmHg 14%
    15:00 +48°C° 0 mm 5 m/s 746 mmHg 16%
    16:00 +47°C° 0 mm 4 m/s 746 mmHg 19%
    17:00 +44°C° 0 mm 4 m/s 746 mmHg 23%
    18:00 +43°C° 0 mm 4 m/s 746 mmHg 26%
    19:00 +42°C° 0 mm 3 m/s 746 mmHg 29%
    20:00 +40°C° 0 mm 2 m/s 747 mmHg 31%
    21:00 +39°C° 0 mm 1 m/s 747 mmHg 34%
    22:00 +39°C° 0 mm 2 m/s 747 mmHg 33%
    23:00 +39°C° 0 mm 2 m/s 746 mmHg 31%

    20 Juillet, Vendredi

    Heure Température Précipitation Vent Pression Humidité
    00:00 +39°C° 0 mm 3 m/s 746 mmHg 30%
    01:00 +39°C° 0 mm 3 m/s 746 mmHg 29%
    02:00 +40°C° 0 mm 4 m/s 746 mmHg 28%
    03:00 +40°C° 0 mm 4 m/s 745 mmHg 27%
    04:00 +40°C° 0 mm 4 m/s 745 mmHg 25%
    05:00 +40°C° 0 mm 5 m/s 746 mmHg 24%
    06:00 +40°C° 0 mm 5 m/s 746 mmHg 22%
    07:00 +42°C° 0 mm 6 m/s 746 mmHg 22%
    08:00 +44°C° 0 mm 7 m/s 746 mmHg 21%
    09:00 +46°C° 0 mm 8 m/s 746 mmHg 21%
    10:00 +48°C° 0 mm 9 m/s 746 mmHg 20%
    11:00 +48°C° 0 mm 9 m/s 746 mmHg 19%
    12:00 +49°C° 0 mm 10 m/s 746 mmHg 17%
    13:00 +49°C° 0 mm 10 m/s 745 mmHg 17%
    14:00 +49°C° 0 mm 9 m/s 745 mmHg 18%
    15:00 +49°C° 0 mm 9 m/s 745 mmHg 18%
    16:00 +48°C° 0 mm 8 m/s 744 mmHg 19%
    17:00 +46°C° 0 mm 7 m/s 744 mmHg 21%
    18:00 +45°C° 0 mm 6 m/s 744 mmHg 23%
    19:00 +44°C° 0 mm 6 m/s 745 mmHg 24%
    20:00 +43°C° 0 mm 5 m/s 745 mmHg 26%
    21:00 +42°C° 0 mm 4 m/s 745 mmHg 28%
    22:00 +42°C° 0 mm 5 m/s 745 mmHg 27%
    23:00 +42°C° 0 mm 5 m/s 745 mmHg 26%

    21 Juillet, Samedi

    Heure Température Précipitation Vent Pression Humidité
    00:00 +42°C° 0 mm 6 m/s 744 mmHg 25%
    01:00 +43°C° 0 mm 7 m/s 744 mmHg 24%
    02:00 +43°C° 0 mm 8 m/s 744 mmHg 23%
    03:00 +42°C° 0 mm 9 m/s 744 mmHg 22%
    04:00 +42°C° 0 mm 9 m/s 744 mmHg 23%
    05:00 +42°C° 0 mm 9 m/s 745 mmHg 24%
    06:00 +42°C° 0 mm 10 m/s 745 mmHg 25%
    07:00 +43°C° 0 mm 10 m/s 745 mmHg 22%
    08:00 +45°C° 0 mm 10 m/s 746 mmHg 19%
    09:00 +47°C° 0 mm 10 m/s 746 mmHg 16%
    10:00 +48°C° 0 mm 10 m/s 746 mmHg 16%
    11:00 +48°C° 0 mm 10 m/s 746 mmHg 15%
    12:00 +49°C° 0 mm 11 m/s 745 mmHg 14%
    13:00 +49°C° 0 mm 10 m/s 745 mmHg 15%
    14:00 +48°C° 0 mm 10 m/s 745 mmHg 15%
    15:00 +48°C° 0 mm 10 m/s 745 mmHg 16%
    16:00 +48°C° 0 mm 9 m/s 745 mmHg 17%
    17:00 +46°C° 0 mm 8 m/s 745 mmHg 19%
    18:00 +45°C° 0 mm 7 m/s 745 mmHg 20%
    19:00 +44°C° 0 mm 7 m/s 745 mmHg 21%
    20:00 +44°C° 0 mm 6 m/s 745 mmHg 23%
    21:00 +42°C° 0 mm 5 m/s 746 mmHg 24%
    22:00 +42°C° 0 mm 6 m/s 745 mmHg 24%
    23:00 +42°C° 0 mm 6 m/s 745 mmHg 24%

    22 Juillet, Dimanche

    Heure Température Précipitation Vent Pression Humidité
    00:00 +43°C° 0 mm 7 m/s 745 mmHg 23%
    01:00 +41°C° 0 mm 7 m/s 745 mmHg 23%
    02:00 +41°C° 0 mm 8 m/s 745 mmHg 24%
    03:00 +42°C° 0 mm 9 m/s 745 mmHg 24%
    04:00 +42°C° 0 mm 9 m/s 745 mmHg 25%
    05:00 +40°C° 0 mm 9 m/s 745 mmHg 27%
    06:00 +40°C° 0 mm 9 m/s 746 mmHg 29%
    07:00 +43°C° 0 mm 9 m/s 746 mmHg 25%
    08:00 +44°C° 0 mm 9 m/s 746 mmHg 22%
    09:00 +47°C° 0 mm 10 m/s 746 mmHg 18%
    10:00 +47°C° 0 mm 10 m/s 746 mmHg 17%
    11:00 +48°C° 0 mm 10 m/s 746 mmHg 16%
    12:00 +48°C° 0 mm 10 m/s 746 mmHg 15%
    13:00 +48°C° 0 mm 10 m/s 745 mmHg 16%
    14:00 +48°C° 0 mm 10 m/s 745 mmHg 16%
    15:00 +48°C° 0 mm 10 m/s 745 mmHg 16%
    16:00 +47°C° 0 mm 10 m/s 745 mmHg 17%
    17:00 +47°C° 0 mm 9 m/s 745 mmHg 18%
    18:00 +45°C° 0 mm 8 m/s 745 mmHg 20%
    19:00 +44°C° 0 mm 8 m/s 745 mmHg 21%
    20:00 +44°C° 0 mm 7 m/s 745 mmHg 22%
    21:00 +43°C° 0 mm 7 m/s 746 mmHg 24%
    22:00 +43°C° 0 mm 7 m/s 745 mmHg 25%
    23:00 +41°C° 0 mm 8 m/s 745 mmHg 27%
    Voir plus